Zurück zum Katalog

COSMOS 878

AktivKommunikationLEO
NORAD 9595·PAYLOAD·🇷🇺 Russia

Gestartet Dec 7, 1976 von Plesetsk Cosmodrome

Loading…

Nächste Überflüge (nächste 24 Stunden)

TLE

AktuellSource: Space-Track

Epoche: Sep 14, 2026, 11:31 UTC

1 09595U 76118H   26257.48028162 -.00000021  00000-0 -36796-4 0  9994
2 09595  74.0272 259.0794 0006886   8.5224 146.6783 12.48947976269129

Verfolge COSMOS 878 in Echtzeit mit AllMySat

Download on the App Store